Weather in Lasanen

Russia / Republic of Karelia     61°16′11″N   29°51′15″E
temp.,
°C
wind,
m/s
gust,
m/s
humid.,
%
clouds,
%
prec.,
mm/h
press.,
hPa
HPBL,
m
27 july, tue
tue2700:00+18w22694 0.0 101932
03:00+19w246191 0.0 101976
06:00+18wsw22653 0.0 101943
09:00+25wsw23435 0.0 1019456
12:00+29sw12335 0.0 10182109
15:00+28ese333580 0.0 10161581
18:00+23ese2450100 0.0 101682
21:00+22sse225654 0.0 101527
28 july, wed
wed2800:00+18e236565 0.0 101538
03:00+16se2278100 0.0 101438
06:00+18ese2372100 0.0 101259
09:00+21e3363100 0.0 1011242
12:00+21e3360100 0.0 1010312
15:00+22e3258100 0.1 1009471
18:00+20se1271100 0.5 1007403
21:00+19nw1182100 0.6 100615
29 july, thu
thu2900:00+17ese228964 0.0 100547
03:00+16s119566 0.0 100411
06:00+16sw2596100 0.2 1003145
09:00+21sw467650 0.2 1002687
12:00+23wsw5766100 0.6 10011217
15:00+23sw585944 1.7 9991370
18:00+23wsw59631 1.0 9991164
21:00+21sw411675 1.6 998625
30 july, fri
fri3000:00+18wsw512667 0.0 999594
03:00+17wsw41180100 0.0 999563
06:00+17sw5118689 0.0 999716
09:00+20sw696298 0.0 9981234
12:00+21sw695220 0.4 9981649
15:00+22sw7104198 0.6 9972097
18:00+22sw6104494 0.0 9971752
21:00+17sw41169100 0.3 996997
31 july, sat
sat3100:00+16ssw51272100 0.0 995953
03:00+15sse5137998 0.0 992913
06:00+14ssw6139563 3.5 9901039
09:00+15sw5119646 13.2 989828
12:00+19wsw696464 1.0 9891350
15:00+19wsw697029 1.6 9911233
18:00+20w586811 1.0 9931017
21:00+16wsw37815 1.3 995254